Hourly Data Report for September 12, 2018

SHEARWATER RCS
NOVA SCOTIA
Current Station Operator: ECCC - MSC

44°37'47.000" N
63°30'48.000" W
24.00 m
8205092
71264
AAW

Download Data

Hourly Data (September 2018)
Hourly Data Report for September 12, 2018
TIME Temp Definition
°C
Dew Point Definition
°C
Rel Hum Definition
%
Wind Dir Definition
10's deg

Wind Spd Definition
km/h
Visibility Definition
km
Stn Press Definition
kPa
Hmdx Definition


Wind Chill Definition


Weather Definition


00:00 20.1 18.9 93 18 20   101.89 27   LegendNANA
01:00 20.7 19.6 93 20 28   101.85 28   LegendNANA
02:00 21.0 20.0 94 21 17   101.84 29   LegendNANA
03:00 20.8 19.8 94 22 19   101.84 28   LegendNANA
04:00 20.5 19.6 95 23 11   101.82 28   LegendNANA
05:00 20.4 19.5 95 25 9   101.84 28   LegendNANA
06:00 20.3 19.4 95 28 5   101.89 27   LegendNANA
07:00 19.6 17.8 90 32 14   102.01     LegendNANA
08:00 18.8 16.7 88 33 14   102.08     LegendNANA
09:00 19.8 16.6 82 32 17   102.10     LegendNANA
10:00 19.6 16.2 81 33 18   102.12     LegendNANA
11:00 20.3 16.1 77 35 17   102.09 25   LegendNANA
12:00 21.2 16.3 74 32 15   102.08 26   LegendNANA
13:00 22.1 16.0 68 32 17   102.09 27   LegendNANA
14:00 21.7 14.9 66 34 16   102.10 26   LegendNANA
15:00 20.4 15.0 71 36 15   102.13     LegendNANA
16:00 19.4 14.6 74 33 14   102.19     LegendNANA
17:00 19.1 14.5 74 33 10   102.20     LegendNANA
18:00 18.6 14.1 75 36 9   102.21     LegendNANA
19:00 18.2 13.8 76 36 9   102.24     LegendNANA
20:00 18.2 14.0 77 35 8   102.28     LegendNANA
21:00 17.8 14.0 78 36 7   102.26     LegendNANA
22:00 17.3 13.9 80 2 7   102.24     LegendNANA
23:00 16.8 13.0 78 36 7   102.23     LegendNANA

Notes on Data Quality.

Legend

  • E = Estimated
  • M = Missing
  • NA = Not Available*
  • [empty] = Indicates an unobserved value
Date modified: